Powrót do katalogu

SL-6 R/B(2)

AktywnyHEO
NORAD 8018·ROCKET BODY·🇷🇺 Russia

Wystrzelony Jul 8, 1975 z Plesetsk Cosmodrome

Loading…

Następne Przeloty (najbliższe 24 godziny)

TLE

ŚwieżeSource: Space-Track

Epoka: Sep 14, 2026, 02:09 UTC

1 08018U 75063D   26257.08991834 -.00000057  00000-0  00000-0 0  9995
2 08018  64.3136 292.0885 6462729 299.7817  11.5740  2.70748658384049

Śledź SL-6 R/B(2) w czasie rzeczywistym z AllMySat

Download on the App Store